Satellite-Ground Cal/Val Region Overpasses Predictions

Prediction of Satellite NPP Overpassing Cal/Val Region: PacNW

Region Location: (Latitude: 10.00, Longitude: 139.50) to (Latitude: 22.70, Longitude: 165.60).

Table of predicted overpasses for the next 14.0 days since TLE Epoch: 2/1/2019
Interval Starting Time Starting Location Ending Time Ending Location
1 02/02/2019 02:33:10 ( 10.06, 161.38) 02/02/2019 02:36:45 ( 22.68, 158.38)
2 02/02/2019 15:05:03 ( 22.66, 158.61) 02/02/2019 15:08:38 ( 10.04, 155.61)
3 02/03/2019 02:14:48 ( 12.39, 165.60) 02/03/2019 02:17:43 ( 22.66, 163.14)
4 02/03/2019 03:55:38 ( 10.05, 140.76) 02/03/2019 03:57:10 ( 15.46, 139.51)
5 02/03/2019 14:46:01 ( 22.68, 163.37) 02/03/2019 14:49:36 ( 10.05, 160.37)
6 02/04/2019 03:36:35 ( 10.04, 145.52) 02/04/2019 03:40:10 ( 22.66, 142.52)
7 02/04/2019 14:29:59 ( 12.06, 165.59) 02/04/2019 14:30:34 ( 10.01, 165.12)
8 02/04/2019 16:08:28 ( 22.68, 142.76) 02/04/2019 16:12:04 ( 10.00, 139.75)
9 02/05/2019 03:17:33 ( 10.03, 150.29) 02/05/2019 03:21:08 ( 22.65, 147.29)
10 02/05/2019 15:49:26 ( 22.69, 147.52) 02/05/2019 15:53:02 ( 10.01, 144.51)
11 02/06/2019 02:58:30 ( 10.01, 155.05) 02/06/2019 03:02:06 ( 22.69, 152.03)
12 02/06/2019 15:30:24 ( 22.65, 152.27) 02/06/2019 15:33:59 ( 10.02, 149.27)
13 02/07/2019 02:39:28 ( 10.00, 159.81) 02/07/2019 02:43:04 ( 22.68, 156.79)
14 02/07/2019 15:11:22 ( 22.66, 157.03) 02/07/2019 15:14:57 ( 10.04, 154.03)
15 02/08/2019 02:20:26 ( 10.05, 164.56) 02/08/2019 02:24:01 ( 22.67, 161.56)
16 02/08/2019 14:52:19 ( 22.67, 161.79) 02/08/2019 14:55:54 ( 10.05, 158.79)
17 02/09/2019 03:42:54 ( 10.05, 143.94) 02/09/2019 03:46:29 ( 22.67, 140.94)
18 02/09/2019 14:34:24 ( 18.75, 165.59) 02/09/2019 14:36:52 ( 10.06, 163.55)
19 02/09/2019 16:14:47 ( 22.67, 141.18) 02/09/2019 16:16:44 ( 15.81, 139.51)
20 02/10/2019 03:23:51 ( 10.04, 148.70) 02/10/2019 03:27:26 ( 22.66, 145.70)
21 02/10/2019 15:55:44 ( 22.68, 145.94) 02/10/2019 15:59:20 ( 10.00, 142.92)
22 02/11/2019 03:04:49 ( 10.02, 153.47) 02/11/2019 03:08:24 ( 22.65, 150.46)
23 02/11/2019 15:36:42 ( 22.69, 150.70) 02/11/2019 15:40:18 ( 10.01, 147.69)
24 02/12/2019 02:45:47 ( 10.01, 158.23) 02/12/2019 02:49:23 ( 22.69, 155.21)
25 02/12/2019 15:17:40 ( 22.65, 155.45) 02/12/2019 15:21:15 ( 10.03, 152.45)
26 02/13/2019 02:26:44 ( 10.00, 162.99) 02/13/2019 02:30:20 ( 22.68, 159.97)
27 02/13/2019 14:58:38 ( 22.66, 160.21) 02/13/2019 15:02:13 ( 10.04, 157.21)
28 02/14/2019 02:10:19 ( 19.21, 165.59) 02/14/2019 02:11:18 ( 22.67, 164.73)
29 02/14/2019 03:49:12 ( 10.00, 142.37) 02/14/2019 03:52:38 ( 22.09, 139.50)
30 02/14/2019 14:39:35 ( 22.67, 164.97) 02/14/2019 14:43:10 ( 10.05, 161.97)
31 02/14/2019 16:21:05 ( 22.66, 139.59) 02/14/2019 16:21:11 ( 22.31, 139.51)
32 02/15/2019 03:30:10 ( 10.05, 147.12) 02/15/2019 03:33:45 ( 22.67, 144.12)


NCC Satellite Cal/Val Overpasses Prediction Service
